Presure
89 123 131 130 120 113 116 135 130 110 108 110 122 123 95 97 121 96 120 108 144 126 125 115 153 134 143 128 127 134 134 106 125 123 132 101 119 110 126 127 121 130 118
92 115 132 90 110 121 95 126 104 113 104 111 112 135 94 110 116 141 121 138 147 131 164 138 120 139 116 125 126 105 123 115 109 105 132 119 87 108 129 129 122 126 121
107 105 96 130 101 123 91 143 138 124 118 117 142 132 129 120 134 123 123 132 142 134 135 124 128 123 120 139 146 114 94 148 147 116 141 132 152 130 127 125 144 129 134
96 95 123 93 104 96 125 93 101 92 100 124 149 125 119 120 131 100 132 116 132 120 127 139 128 115 127 127 133 123 105 121 113 133 133 139 134 117 137 143 149 136 128
96 97 90 98 87 99 117 95 114 110 103 134 144 133 116 116 123 127 116 104 116 151 124 125 121 121 115 104 98 119 113 124 131 132 127 137 137 132 128 112 127 135 131
108 151 94 106 136 122 93 102 104 134 89 88 141 113 150 120 111 95 126 115 114 116 114 123 125 117 121 121 131 148 141 139 138 133 141 130 139 127 126 88 139 134 130
126 113 102 103 108 98 112 127 134 105 122 132 142 134 140 113 138 116 122 116 152 114 136 110 109 127 119 150 164 160 133 134 123 140 134 129 125 124 137 124 139 132 157
121 96 153 109 148 111 121 114 126 133 133 111 141 127 123 125 146 142 139 114 151 149 94 112 131 113 124 133 124 122 141 119 133 140 108 128 142 142 138 137 137 134 150
146 129 117 124 146 109 115 124 128 127 118 114 131 139 140 138 135 141 134 131 104 136 151 142 139 145 116 142 123 136 136 136 138 117 117 128 143 127 143 144 127 152 148
125 146 152 158 103 152 133 127 124 133 92 129 116 125 139 135 122 128 118 165 142 147 151 141 147 130 135 128 149 126 127 128 139 149 146 134 142 145 150 140 127 153 151
79 155 136 149 107 153 118 147 147 122 130 129 123 125 129 127 119 127 110 133 122 157 150 148 138 128 138 126 138 92 133 97 140 141 143 150 145 149 137 138 149 148 142
74 163 79 121 157 155 156 142 154 87 147 133 139 145 128 135 129 127 127 164 160 137 150 135 109 131 142 141 128 131 138 131 136 142 150 146 144 133 148 140 145 140 150
132 137 80 140 153 159 145 115 154 151 160 152 150 148 135 142 108 133 159 178 166 145 94 140 147 135 130 141 144 142 142 141 147 148 152 145 133 152 148 137 151 138 146
143 146 134 76 83 149 90 82 78 158 157 157 153 150 89 154 145 157 92 157 168 95 143 160 144 153 104 150 90 141 140 137 149 135 147 145 139 149 139 147 138 159 159
154 132 138 104 77 135 78 103 121 153 155 158 123 150 146 111 139 144 146 114 107 106 133 101 144 146 135 76 133 141 148 126 143 152 154 144 141 152 153 146 146 151 151
70 88 81 114 119 148 78 76 101 85 81 151 77 81 157 101 96 81 129 75 144 123 138 141 141 139 151 154 154 127 147 137 144 146 142 158 137 147 148 162 146 158 154
159 146 153 153 154 93 153 74 135 79 77 76 81 140 88 88 91 156 139 84 132 127 124 126 135 137 155 145 147 149 145 156 152 163 150 146 160 151 145 154 138 155 163
161 161 157 140 83 93 97 118 80 90 155 156 74 93 149 148 144 136 147 133 128 133 144 150 141 138 135 144 134 134 140 144 159 148 159 148 146 147 142 146 161 162 157
172 143 162 162 155 159 155 159 157 156 154 153 159 158 150 145 150 141 140 138 137 134 132 135 142 139 141 144 150 160 150 155 149 162 143 154 148 150 149 160 162 160 171
167 169 168 166 165 157 158 157 160 158 148 158 153 151 148 148 148 146 156 149 139 140 141 143 142 138 148 142 156 141 153 161 148 156 156 156 157 159 165 174 168 173 178
185 184 179 185 192 182 171 151 152 163 147 161 163 168 157 153 158 148 148 146 148 152 149 147 145 150 153 145 143 163 149 151 152 163 158 163 156 169 164 171 182 188 192
172 168 128 177 174 191 168 164 164 159 166 169 153 164 158 149 148 141 147 144 146 150 154 151 147 152 146 151 148 149 155 159 165 154 161 163 155 169 175 182 178 192 189
171 171 117 119 118 143 182 180 171 171 171 160 171 165 155 152 153 152 159 154 158 142 153 159 157 157 154 160 155 161 148 156 152 160 150 163 173 178 178 183 192 178 192
151 150 175 168 178 137 175 190 155 154 171 174 180 147 169 169 171 168 169 164 161 133 127 127 128 159 147 155 156 169 168 164 167 168 169 171 164 180 191 172 189 195 180
121 143 142 181 173 170 157 170 131 192 190 185 185 187 145 182 180 168 125 169 179 166 170 171 168 155 169 171 168 154 167 172 178 173 180 183 187 190 173 193 187 190 202
156 139 177 189 170 179 174 171 170 169 149 170 149 165 190 190 186 183 184 183 183 182 170 169 164 165 170 166 154 176 183 174 177 181 184 186 180 171 182 192 198 175 194
Wind_Speed
15 38 40 34 31 30 28 34 31 23 24 23 29 29 15 12 23 18 29 27 32 30 28 25 25 28 26 31 30 31 26 30 36 36 34 30 46 40 48 50 41 53 48
23 35 42 14 31 32 19 36 22 28 26 25 28 34 16 32 31 29 27 30 30 33 33 29 31 28 33 34 35 27 38 39 36 33 35 46 16 38 49 52 49 56 53
33 28 26 43 29 36 16 33 39 33 33 29 38 32 34 34 33 31 32 32 33 33 32 32 34 34 35 32 30 39 24 29 31 34 34 42 36 47 52 54 45 59 58
31 29 41 21 32 25 28 20 24 18 26 32 38 34 33 33 36 28 35 32 35 33 34 35 36 34 38 38 37 41 35 37 35 41 42 38 43 52 46 43 50 54 61
31 30 21 31 16 31 38 23 28 30 27 36 40 41 35 35 36 36 35 27 33 37 37 38 36 37 37 31 27 44 39 46 45 41 51 42 43 48 53 51 56 57 62
44 49 25 38 51 41 20 33 36 39 18 19 41 38 39 40 37 22 39 37 35 36 33 39 41 39 42 44 43 38 39 42 44 48 44 52 45 53 57 32 53 59 65
58 40 37 37 38 32 40 45 47 38 40 43 42 43 42 38 43 39 41 40 42 38 43 34 36 44 41 36 37 36 44 45 51 46 51 54 39 43 46 61 56 64 66
44 33 55 44 49 44 47 44 47 48 46 42 44 45 44 45 43 44 43 41 43 43 28 37 48 40 47 48 48 50 43 47 50 48 38 54 48 49 51 57 57 63 61
63 64 56 53 60 42 46 51 53 50 45 41 47 46 46 46 46 45 43 43 31 41 45 44 49 49 38 42 49 49 49 51 52 48 41 56 49 59 55 54 63 64 61
50 60 60 58 38 57 60 57 54 56 24 51 48 51 48 49 46 46 46 46 46 47 46 48 46 49 50 52 43 53 55 54 53 49 50 56 52 52 56 57 64 65 64
18 62 63 59 28 59 40 58 59 52 56 53 51 53 52 52 48 50 32 48 38 48 48 48 49 49 51 48 53 38 57 38 55 54 54 51 52 55 59 63 62 64 65
19 65 16 42 59 60 58 49 58 22 56 58 54 54 55 55 55 54 37 46 49 48 49 49 38 52 52 53 57 58 58 56 58 56 54 52 53 62 61 62 64 67 68
65 64 24 63 61 61 58 39 57 57 54 57 57 55 57 54 43 49 45 43 47 50 35 51 54 56 55 57 56 58 58 58 55 54 55 53 63 61 59 63 65 68 68
66 67 66 24 30 61 30 27 20 57 58 57 57 56 33 49 52 47 33 47 46 35 49 48 56 52 46 54 43 60 60 59 56 60 55 56 62 62 66 63 67 74 75
76 62 67 39 25 64 24 39 46 61 59 58 45 57 55 39 47 52 52 48 42 44 54 40 53 54 52 25 60 59 59 60 57 58 59 62 63 65 67 68 68 70 71
21 41 39 52 53 66 28 24 37 34 33 61 28 33 56 36 37 35 49 28 53 59 56 55 57 57 58 58 59 63 60 64 60 58 65 68 67 65 66 78 68 77 75
81 73 75 73 75 36 70 24 63 34 31 31 37 55 46 46 47 58 58 47 59 64 63 63 63 64 61 62 62 61 64 64 62 73 69 63 76 69 68 75 67 77 86
85 86 82 62 34 41 46 55 41 38 71 70 23 44 61 60 60 61 58 64 67 65 61 62 65 66 68 64 69 70 71 67 72 64 76 68 69 69 68 70 88 86 78
93 73 86 86 78 79 77 79 78 75 73 70 72 69 60 59 62 63 63 64 66 67 68 67 67 67 68 69 67 73 66 73 73 82 71 76 72 74 74 86 88 81 97
88 88 90 89 85 77 80 79 81 79 67 77 68 65 61 62 65 66 70 68 67 69 69 70 71 69 71 69 75 66 76 82 74 81 82 81 82 85 93 99 92 96 100
95 96 94 95 94 91 90 74 74 85 62 80 82 84 75 72 78 69 69 68 71 77 77 76 73 77 81 68 70 81 73 78 80 90 84 91 79 95 89 97 104 105 104
88 85 60 87 90 90 89 88 90 80 90 90 69 83 78 70 70 67 70 69 74 78 84 81 77 80 71 78 74 76 83 90 94 86 93 91 79 96 101 103 100 105 103
88 88 56 59 60 72 91 96 98 99 96 81 94 86 70 72 77 78 85 81 86 72 86 89 88 87 83 89 86 93 79 88 81 94 87 95 104 102 101 101 105 92 102
75 75 92 88 91 71 91 95 77 75 94 99 103 71 93 92 93 90 91 90 89 70 67 67 66 92 82 87 88 101 99 95 99 101 106 107 95 110 111 88 103 107 93
57 73 73 93 93 91 78 90 68 95 98 103 106 105 74 101 102 92 68 94 99 96 98 100 98 88 100 100 99 87 100 105 106 104 109 111 112 112 92 110 102 105 115
80 71 89 96 88 95 94 93 92 90 78 92 76 83 103 103 103 103 103 103 103 101 93 94 94 97 100 96 85 105 108 101 106 107 109 112 106 99 103 109 112 92 105
Wind_Direction
249 241 242 227 244 252 255 242 246 260 272 270 264 263 299 280 276 302 282 292 287 289 289 300 297 289 289 298 303 299 294 321 312 311 301 320 317 326 310 310 320 310 327
253 243 237 242 256 248 279 250 245 263 275 270 274 261 275 279 278 275 279 282 283 286 292 281 298 287 304 304 303 316 308 315 320 323 298 314 337 321 304 307 319 313 320
246 236 265 241 267 248 271 238 244 255 262 268 256 262 266 271 274 276 279 283 280 282 282 291 293 300 304 292 286 312 310 290 292 309 304 297 312 302 306 309 313 308 307
250 254 245 257 261 270 240 276 272 284 283 260 252 264 269 273 275 290 279 289 283 292 291 284 293 303 303 303 295 302 313 304 305 299 308 297 299 314 307 314 319 306 310
249 251 254 261 235 268 254 274 256 272 277 256 251 263 274 276 278 279 285 289 291 280 294 295 299 302 303 304 304 303 304 302 298 298 302 294 301 299 302 313 312 304 309
249 234 248 257 243 252 251 266 269 251 258 262 254 274 262 274 283 279 279 289 292 293 295 296 297 298 299 300 295 283 289 291 292 296 296 301 300 302 302 309 305 307 309
240 245 254 253 253 256 261 251 250 268 257 255 259 258 261 279 265 281 277 285 280 292 280 286 295 293 297 288 286 282 293 293 302 292 297 300 303 304 308 306 306 306 320
238 248 235 257 241 259 256 261 255 253 254 268 258 260 265 267 272 271 276 283 281 281 284 286 286 293 294 293 295 297 287 300 294 290 300 300 302 304 300 305 302 312 315
234 242 254 253 238 257 257 255 253 255 263 261 258 260 262 265 267 272 271 273 280 281 279 281 282 281 293 285 295 291 289 291 287 300 297 299 300 300 306 306 307 314 312
242 236 239 239 256 239 250 254 258 252 255 256 268 265 263 265 268 269 274 276 278 280 278 280 279 288 286 291 284 295 296 296 291 295 297 297 302 306 308 299 314 314 314
234 238 244 243 242 242 250 243 246 266 258 259 265 266 266 269 273 274 281 275 280 275 277 278 280 284 284 289 285 306 293 304 293 295 296 303 302 306 300 300 311 309 306
237 238 244 243 242 244 244 245 247 258 254 258 259 257 268 266 274 278 278 274 274 278 276 281 293 284 280 283 293 292 289 294 293 294 300 299 298 295 304 300 305 303 311
240 239 247 243 243 244 248 254 251 253 255 255 256 258 263 265 277 272 273 278 272 278 292 280 279 280 285 282 282 285 288 290 292 295 300 298 294 307 303 297 308 303 309
239 241 242 249 255 245 252 260 268 253 255 256 257 259 277 267 266 271 287 275 275 285 278 275 280 275 292 278 302 285 287 291 293 291 296 297 293 304 297 302 300 314 314
238 241 243 251 262 249 260 257 256 253 254 257 265 259 261 274 271 267 267 276 281 283 279 285 279 280 281 300 285 288 288 293 290 297 302 296 294 304 307 309 302 308 309
257 246 250 246 250 247 265 270 263 266 271 255 281 279 263 272 277 285 270 290 273 282 277 278 279 283 281 284 286 294 286 288 290 291 292 305 293 299 300 308 301 311 310
237 242 244 244 244 255 250 268 252 276 276 276 278 262 278 278 277 269 268 282 273 279 283 285 281 281 286 282 284 287 287 296 296 300 297 294 307 302 300 308 304 310 313
238 241 243 245 254 258 261 257 268 262 258 259 272 272 260 263 265 267 272 270 274 277 275 279 278 280 283 283 287 288 289 288 300 293 304 295 297 298 300 303 308 311 312
239 243 245 244 247 247 249 250 253 255 257 259 260 262 262 264 267 266 267 268 269 272 276 276 279 279 281 284 289 294 292 295 294 302 291 300 296 300 302 306 308 310 312
240 243 244 248 248 250 252 254 254 256 257 261 262 261 262 264 266 267 271 271 271 274 276 278 278 279 286 285 291 286 293 297 293 299 298 299 301 303 305 306 309 310 311
239 243 246 249 250 250 249 253 254 257 258 260 261 262 265 266 269 269 270 271 275 278 279 280 282 284 286 287 290 292 292 294 296 297 298 299 299 304 305 307 308 308 310
239 243 251 247 249 250 251 255 257 260 260 260 262 262 262 264 265 266 271 272 274 276 277 279 282 283 286 289 288 290 295 295 297 296 298 299 298 304 305 305 306 307 309
241 242 252 254 254 253 248 249 255 260 262 260 262 264 262 264 266 269 270 271 273 274 278 278 280 284 286 288 291 291 290 292 293 296 298 298 301 302 303 304 304 310 311
245 247 243 247 246 252 250 248 253 261 257 262 264 256 268 270 268 269 268 269 272 276 277 280 281 282 285 286 288 290 291 292 293 294 296 297 300 300 301 307 308 309 314
250 249 251 244 247 250 256 255 257 253 254 259 263 265 260 265 268 271 274 273 272 273 274 276 280 282 284 286 287 288 291 291 292 294 295 296 297 298 305 305 309 311 310
248 248 245 244 248 248 251 253 256 257 258 259 259 262 264 265 266 268 269 270 272 275 277 278 278 280 282 284 285 288 289 290 292 294 295 295 298 302 302 304 306 307 311